TRANSIT 5B-2 DEB, 25156

Orbit data source: Space-Track

TRANSIT 5B-2 DEB, 25156 is space debris in LEO originally from a launch on Thu, 05 Dec 1963 UTC launched from the Air Force Western Test Range (AFWTR). Debris objects in space refer to the collection of defunct objects orbiting the Earth. Examples of debris include non-operational satellites, rocket bodies, and fragments generated from explosions, collisions, or faulty payload assembly.

Loading next visibility...
Identifier
25156, 1963-049N
Orbit
LEO
Country
Flag of USUS
Related business
Manufacturer
Unknown
Mission
Spacecraft
Bus & Motor
Unknown
Mass
Unknown
Launch date (UTC)
1963-12-05 (63 years ago)
Launch vehicle
Unknown
Launch site
Air Force Western Test Range (AFWTR)
Object type
Payload
Rocket body
Debris
Shape & HBR
Unknown shape, 0.3 m
Radar Cross Section
Medium (>0.1 m² and <1 m²)

Expand to show TLE details & history
Last TLE update: 13 hours ago

TLE from 13 hours ago
0 TRANSIT 5B-2 DEB
1 25156U 63049N   26236.33506170  .00000543  00000-0  74135-3 0  9990
2 25156  89.9172  71.3918 0041109 181.0136 353.2254 13.57404359408277
Epoch: 2026-08-24T08:02Z
TLE epoch observation values (Epoch: 2026-08-24T08:02:29.330Z)
Latitude
5.73578°
Longitude
158.14307°
Altitude
1,017.236 km
Speed
7.358 km/s
True Right ascension
16h 45m 32s
True Declination
5° 42' 10"
Sunlit
Object was in daylight at epoch
Visualization orbit readout
Latitude
Unknown
Longitude
Unknown
Altitude
Unknown
Speed
Unknown
Apparent Right ascension
Unknown
Apparent Declination
Unknown
Sunlit
N/A
Visualization observer readout
Local Sidereal Time
12:11:38
Azimuth
Unknown
Elevation
Unknown
Doppler factor
Unknown
Orbital elements
Apogee altitude
1,072.683 km
Perigee altitude
1,011.675 km
Semi-major axis
7,420.316 km
Eccentricity
0.00411
Inclination
89.9172°
RAAN
71.3918°
Arg. of periapsis
181.0136°
True anomaly
353.16955°
Mean anomaly
353.2254°
Eccentric anomaly
353.1975°
Mean motion
3.39555 °/min
Orbital period
106.02 mins
BSTAR
0.00074135
Loading maneuver chart data...
Computing Atmospheric mass density...
Loading historical data...
Loading historical data...
Loading historical data...
Loading historical data...
Loading historical data...
Loading historical data...
Loading historical data...

Documentation

Showing up to 5 results
|